Location: Berlin
(52.5171°N, 13.3759°E)
Time: 08:07:28
(UTC+01:00)

ISS - Pass Details

Date: 13 November 2017
Orbit: 402 x 407 km, 51.6° (Epoch: 23 November)

Event Time Altitude Azimuth Distance (km) Brightness Sun altitude
Exits shadow 05:02:22 43° 151° (SSE) 575 -2.9 -21.5°
Drops below altitude 10° 05:04:53 10° 119° (ESE) 1,455 -0.1 -21.1°
Sets 05:06:58 0° 115° (ESE) 2,312 1.2 -20.8°
